{"data":{"norad_id":41335,"epoch":"2026-09-20T04:08:15.005760Z","epoch_age_seconds":46408,"freshness":"FRESH","line1":"1 41335U 16011A   26263.17239590  .00000036  00000+0  33109-4 0  9998","line2":"2 41335  98.6276 329.1806 0001160 106.6100 253.5208 14.26735676551606","mean_motion":14.26735676,"eccentricity":0.000116,"inclination_deg":98.6276,"raan_deg":329.1806,"arg_perigee_deg":106.61,"mean_anomaly_deg":253.5208,"bstar":3.3109e-5,"rev_number":55160,"period_min":100.92969736603,"perigee_km":801.82996737811,"apogee_km":803.49591296423,"semimajor_km":7180.7999401712,"source":"CELESTRAK","updated_at":"2026-09-20T09:00:33.966267Z"}}